Vancouver Sea Island Ccg, British Columbia

2:04 AM PDT on September 03, 2015 (GMT -0700)
Vancouver International | | Change Station
CLOSE
Current Station
Airport
Location: Vancouver,
Elevation: 13 ft
Nearby Weather Stations

Elev 13 ft 49.18 °N, 123.17 °W | Updated 4 minutes ago

Mostly Cloudy
Mostly Cloudy
52 °F
Feels Like 52 °F
N
10
Wind Variable Wind from East

Today
High -- | Low -- °F
--% Chance of Precip.
Yesterday
High -- | Low -- °F
Precip. -- in
6:31 AM 7:51 PM
Waning Gibbous, 72% visible
Pressure 29.93 in
Visibility 15.0 miles
Clouds Few 1500 ft
Mostly Cloudy 5500 ft
Dew Point 48 °F
Humidity 88%
Rainfall 0.00 in
Snow Depth Not available.
UV 0 out of 12
Pollen Not available.
Air Quality Not available.
Flu Activity Not available.
METAR CYVR 030900Z 09009KT 15SM FEW015 BKN055 11/09 A2993 RMK CF2SC3 SLP135
Pressure 29.93 in
Visibility 15.0 miles
Clouds Few 1500 ft
Mostly Cloudy 5500 ft
Dew Point 48 °F
Humidity 88%
Rainfall 0.00 in
Snow Depth Not available.
UV 0 out of 12
Pollen Not available.
Air Quality Not available.
Flu Activity Not available.
METAR CYVR 030900Z 09009KT 15SM FEW015 BKN055 11/09 A2993 RMK CF2SC3 SLP135

10-Day Weather Forecast

×

Almanac

Astronomy

Sep. 03, 2015 Rise Set
Actual Time
Civil Twilight
Nautical Twilight
Astronomical Twilight
Moon
Length of Visible Light
Length of Day
Tomorrow will be .
, % of the Moon is Illuminated

Today's Extremes

Country Highs Country Lows

Community

WunderPhotos

Upload Photos

1,851,922 photos uploaded!

WunderBlogs® & News

Nearby

Air Quality

  Air Quality AQ Index Pollutant
Not available.

Snow Depth

Station Depth Elevation

Earthquake Activity

City Distance Mag. Time & Date
Minimum magnitude displayed is 2.5.

Coastal Water Temperatures

Place Temperature

Stations

Nearby Weather Stations

Station Location Temp. Windchill Dew Point Humidity Wind Precip. Elev Updated Type